Regional Weather Roundup
Issued by NWS Binghamton, NY

Home | Current Version | Previous Version | Text Only | Print | Product List | Glossary On
Versions: 1 2 3 4 5 6 7 8 9 10 11 12 13 14 15 16 17 18 19 20 21 22 23 24 25 26 27 28 29 30 31 32 33 34 35 36 37 38 39 40 41 42 43 44 45 46 47 48 49 50
573
ASUS41 KBGM 261210
RWRBGM

REGIONAL WEATHER ROUNDUP
NATIONAL WEATHER SERVICE BINGHAMTON NY
800 AM EDT THU MAY 26 2016

Note: "fair" indicates few or no clouds below 12,000 feet with no
significant weather and/or obstructions to visibility.

* = Station(s) that does not report precipitation, such as rain,
snow, etc, also no thunder or fog.

NYZ009-015>018-022>025-036-037-044>046-055>057-062-261300
...Central New York...

CITY           SKY/WX    TMP DP  RH WIND       PRES   REMARKS
Binghamton     CLOUDY    64  54  69 SE5       30.15R
Cortland       FAIR      61  55  82 CALM      30.14S
Dansville      CLOUDY    65  55  70 SE8       30.11S
Elmira         CLOUDY    61  54  77 CALM      30.13R
Ithaca         CLOUDY    64  56  75 E3        30.13R
Hamilton       SUNNY     66  55  68 CALM      30.14S
Hornell        CLOUDY    61  54  77 SE3       30.17R
Monticello     SUNNY     61  55  82 CALM      30.17S
Oneonta        SUNNY     66  55  68 CALM      30.17R
Penn Yan       CLOUDY    64  53  67 SW7       30.11S
Rome           MOSUNNY   63  57  81 SE5       30.12R
Sidney         SUNNY     61  59  94 CALM      30.15S
Syracuse       CLOUDY    63  57  81 E5        30.09R
$$

PAZ038>040-043-044-047-048-072-261300
...Northeast Pennsylvania...

CITY           SKY/WX    TMP DP  RH WIND       PRES   REMARKS
Hazleton       CLOUDY    63  55  77 CALM      30.19S
Scranton       CLOUDY    65  53  65 E3        30.14S
$$
&&
KEY
WCI = Wind Chill Index
VSB = Visibility
HX  = Heat Index
$$




USA.gov is the U.S. government's official web portal to all federal, state and local government web resources and services.